CHH7821 ZSJN-ZYTX

Flight info

Callsign CHH7821
Flight time 1h 23m
Altitude 31000
Route WFG81D WFG W103 JDE W652 TEKAM V68 DOBGA W202 UDETI A588 TOSID TOS73A
Aircraft A339/H-SADE1E2E3GHIJ3J5M1P2RWXY/LB2D1

Departure

Time 2026-04-17 07:49
Airport Jinan Yaoqiang International Airport (ZSJN)

Arrival

Time 2026-04-17 09:12
Airport Shenyang Taoxian International Airport (ZYTX)
Time Latitude Longitude Altitude Speed Heading
2026-04-17 07:26 36.85142 117.20910 92 ft 0 kts 270°
2026-04-17 07:37 36.85142 117.20911 92 ft 0 kts 270°
2026-04-17 07:37 36.85142 117.20928 92 ft 2 kts 276°
2026-04-17 07:38 36.85138 117.20946 92 ft 2 kts 298°
2026-04-17 07:38 36.85130 117.20961 92 ft 2 kts 316°
2026-04-17 07:38 36.85117 117.20972 92 ft 2 kts 334°
2026-04-17 07:38 36.85103 117.20978 92 ft 2 kts 353°
2026-04-17 07:39 36.85095 117.20979 92 ft 1 kts
2026-04-17 07:39 36.85093 117.20979 92 ft 0 kts
2026-04-17 07:41 36.85109 117.20980 92 ft 6 kts
2026-04-17 07:42 36.85183 117.20981 92 ft 14 kts
2026-04-17 07:42 36.85301 117.20982 92 ft 17 kts
2026-04-17 07:42 36.85379 117.21070 92 ft 16 kts 64°
2026-04-17 07:42 36.85427 117.21201 92 ft 16 kts 66°
2026-04-17 07:43 36.85471 117.21335 92 ft 15 kts 65°
2026-04-17 07:43 36.85531 117.21362 92 ft 6 kts 352°
2026-04-17 07:43 36.85584 117.21366 92 ft 10 kts
2026-04-17 07:43 36.85688 117.21371 92 ft 19 kts
2026-04-17 07:44 36.85838 117.21371 92 ft 23 kts 360°
2026-04-17 07:44 36.86011 117.21371 92 ft 25 kts
2026-04-17 07:44 36.86183 117.21370 92 ft 24 kts 359°
2026-04-17 07:44 36.86357 117.21371 92 ft 24 kts
2026-04-17 07:45 36.86534 117.21371 92 ft 25 kts 360°
2026-04-17 07:45 36.86714 117.21371 92 ft 26 kts
2026-04-17 07:45 36.86898 117.21371 92 ft 26 kts
2026-04-17 07:45 36.87080 117.21371 92 ft 24 kts 359°
2026-04-17 07:46 36.87244 117.21372 92 ft 20 kts 360°
2026-04-17 07:46 36.87333 117.21419 92 ft 13 kts 71°
2026-04-17 07:46 36.87339 117.21488 92 ft 7 kts 86°
2026-04-17 07:46 36.87336 117.21561 92 ft 8 kts 102°
2026-04-17 07:47 36.87297 117.21593 92 ft 3 kts 178°
2026-04-17 07:47 36.87267 117.21596 92 ft 5 kts 177°
2026-04-17 07:47 36.87222 117.21599 92 ft 6 kts 179°
2026-04-17 07:47 36.87217 117.21599 92 ft 0 kts 179°
2026-04-17 07:48 36.87151 117.21598 92 ft 36 kts 181°
2026-04-17 07:48 36.86658 117.21597 92 ft 103 kts 180°
2026-04-17 07:48 36.85738 117.21589 93 ft 157 kts 182°
2026-04-17 07:48 36.84607 117.21580 623 ft 159 kts 176°
2026-04-17 07:49 36.83524 117.21680 1252 ft 156 kts 179°
2026-04-17 07:49 36.82428 117.21747 1833 ft 158 kts 172°
2026-04-17 07:49 36.81422 117.22395 2231 ft 175 kts 131°
2026-04-17 07:49 36.80984 117.23865 2534 ft 191 kts 82°
2026-04-17 07:50 36.81608 117.25346 2841 ft 203 kts 34°
2026-04-17 07:50 36.82957 117.26058 3170 ft 217 kts 12°
2026-04-17 07:50 36.84492 117.26453 3506 ft 235 kts
2026-04-17 07:50 36.86165 117.26846 3890 ft 253 kts
2026-04-17 07:51 36.87853 117.27276 4271 ft 270 kts 10°
2026-04-17 07:51 36.89763 117.27795 4678 ft 289 kts 11°
2026-04-17 07:51 36.91818 117.28379 5081 ft 308 kts 11°
2026-04-17 07:51 36.93972 117.29006 5469 ft 327 kts 12°
2026-04-17 07:52 36.96269 117.29684 5835 ft 345 kts 12°
2026-04-17 07:52 36.98672 117.30400 6292 ft 359 kts 12°
2026-04-17 07:52 37.01121 117.31131 7054 ft 362 kts 12°
2026-04-17 07:52 37.03571 117.31865 7859 ft 364 kts 12°
2026-04-17 07:53 37.06065 117.32613 8679 ft 366 kts 12°
2026-04-17 07:53 37.08558 117.33362 9498 ft 368 kts 12°
2026-04-17 07:53 37.11060 117.34113 10314 ft 370 kts 12°
2026-04-17 07:53 37.13565 117.34866 11138 ft 371 kts 12°
2026-04-17 07:54 37.16087 117.35626 11981 ft 372 kts 12°
2026-04-17 07:54 37.18595 117.36382 12817 ft 372 kts 12°
2026-04-17 07:54 37.21121 117.37144 13565 ft 375 kts 12°
2026-04-17 07:54 37.23660 117.37913 14314 ft 379 kts 12°
2026-04-17 07:55 37.26215 117.38686 15066 ft 381 kts 11°
2026-04-17 07:55 37.28801 117.39468 15824 ft 384 kts 11°
2026-04-17 07:55 37.31379 117.40379 16575 ft 388 kts 20°
2026-04-17 07:55 37.33678 117.42270 17337 ft 398 kts 39°
2026-04-17 07:56 37.35432 117.45026 18114 ft 408 kts 56°
2026-04-17 07:56 37.36461 117.48367 18880 ft 418 kts 73°
2026-04-17 07:56 37.36948 117.52010 19681 ft 420 kts 77°
2026-04-17 07:56 37.37399 117.55674 20473 ft 420 kts 77°
2026-04-17 07:57 37.37851 117.59341 21267 ft 420 kts 76°
2026-04-17 07:57 37.38301 117.62949 22057 ft 419 kts 76°
2026-04-17 07:57 37.38757 117.66560 22847 ft 417 kts 76°
2026-04-17 07:57 37.39220 117.70204 23657 ft 414 kts 76°
2026-04-17 07:58 37.39675 117.73781 24466 ft 411 kts 76°
2026-04-17 07:58 37.40122 117.77290 25251 ft 407 kts 76°
2026-04-17 07:58 37.40570 117.80811 26029 ft 402 kts 76°
2026-04-17 07:58 37.41003 117.84210 26802 ft 396 kts 77°
2026-04-17 07:59 37.41434 117.87628 27590 ft 389 kts 77°
2026-04-17 07:59 37.41850 117.90928 28366 ft 382 kts 77°
2026-04-17 07:59 37.42260 117.94197 29141 ft 373 kts 77°
2026-04-17 07:59 37.42664 117.97417 29713 ft 371 kts 77°
2026-04-17 08:00 37.43060 118.00584 30246 ft 368 kts 77°
2026-04-17 08:00 37.43456 118.03745 30718 ft 366 kts 77°
2026-04-17 08:00 37.43851 118.06902 30988 ft 370 kts 77°
2026-04-17 08:00 37.44261 118.10172 31013 ft 383 kts 77°
2026-04-17 08:01 37.44660 118.13521 31009 ft 397 kts 82°
2026-04-17 08:01 37.44674 118.17091 31010 ft 413 kts 95°
2026-04-17 08:01 37.44061 118.20727 31006 ft 426 kts 109°
2026-04-17 08:01 37.42808 118.24157 31012 ft 436 kts 123°
2026-04-17 08:02 37.40947 118.27213 31011 ft 444 kts 137°
2026-04-17 08:02 37.38621 118.29921 31021 ft 454 kts 142°
2026-04-17 08:02 37.36194 118.32574 31021 ft 465 kts 142°
2026-04-17 08:02 37.33695 118.35302 31008 ft 477 kts 142°
2026-04-17 08:03 37.31141 118.38116 31010 ft 488 kts 141°
2026-04-17 08:03 37.28576 118.40966 31012 ft 499 kts 141°
2026-04-17 08:03 37.23251 118.46924 31010 ft 519 kts 141°
2026-04-17 08:04 37.17778 118.53063 31009 ft 535 kts 141°
2026-04-17 08:04 37.12119 118.59405 31011 ft 540 kts 141°
2026-04-17 08:05 37.06478 118.65713 31011 ft 541 kts 142°
2026-04-17 08:05 37.00836 118.72004 31006 ft 540 kts 142°
2026-04-17 08:06 36.95162 118.78316 31012 ft 539 kts 142°
2026-04-17 08:06 36.89511 118.84588 31017 ft 540 kts 142°
2026-04-17 08:07 36.83873 118.90833 31017 ft 539 kts 142°
2026-04-17 08:07 36.78278 118.97018 31018 ft 539 kts 142°
2026-04-17 08:08 36.72600 119.03284 31018 ft 541 kts 142°
2026-04-17 08:08 36.67236 119.09991 31030 ft 547 kts 134°
2026-04-17 08:09 36.62745 119.17834 31029 ft 552 kts 123°
2026-04-17 08:09 36.59280 119.26486 31026 ft 555 kts 116°
2026-04-17 08:10 36.56131 119.35294 31020 ft 555 kts 116°
2026-04-17 08:10 36.52921 119.44174 31022 ft 557 kts 116°
2026-04-17 08:11 36.49719 119.53007 31031 ft 559 kts 113°
2026-04-17 08:11 36.48687 119.57689 31030 ft 562 kts 99°
2026-04-17 08:11 36.48465 119.62567 31038 ft 563 kts 86°
2026-04-17 08:12 36.49000 119.67454 31035 ft 562 kts 75°
2026-04-17 08:12 36.50226 119.72069 31038 ft 557 kts 63°
2026-04-17 08:12 36.52122 119.76376 31050 ft 552 kts 52°
2026-04-17 08:12 36.54527 119.80077 31052 ft 545 kts 41°
2026-04-17 08:13 36.60395 119.85827 31059 ft 534 kts 30°
2026-04-17 08:14 36.69570 119.93868 31055 ft 534 kts 30°
2026-04-17 08:14 36.75616 119.99274 31052 ft 532 kts 30°
2026-04-17 08:15 36.81663 120.04735 31059 ft 531 kts 30°
2026-04-17 08:15 36.87629 120.10136 31061 ft 531 kts 31°
2026-04-17 08:16 36.93608 120.15565 31065 ft 530 kts 31°
2026-04-17 08:16 36.99574 120.20996 31061 ft 529 kts 31°
2026-04-17 08:17 37.05532 120.26428 31066 ft 528 kts 31°
2026-04-17 08:17 37.11446 120.31830 31062 ft 527 kts 31°
2026-04-17 08:18 37.17355 120.37238 31057 ft 527 kts 31°
2026-04-17 08:18 37.23286 120.42675 31056 ft 527 kts 31°
2026-04-17 08:19 37.29212 120.48122 31059 ft 527 kts 31°
2026-04-17 08:19 37.35132 120.53574 31062 ft 526 kts 31°
2026-04-17 08:20 37.41032 120.59019 31065 ft 524 kts 31°
2026-04-17 08:20 37.46933 120.64476 31066 ft 525 kts 31°
2026-04-17 08:21 37.52803 120.69921 31061 ft 524 kts 31°
2026-04-17 08:21 37.58723 120.75382 31059 ft 523 kts 30°
2026-04-17 08:22 37.64704 120.80524 31062 ft 522 kts 28°
2026-04-17 08:22 37.70761 120.85636 31056 ft 521 kts 28°
2026-04-17 08:23 37.76821 120.90748 31062 ft 520 kts 28°
2026-04-17 08:23 37.82830 120.95825 31060 ft 520 kts 28°
2026-04-17 08:24 37.88919 121.00983 31060 ft 519 kts 28°
2026-04-17 08:24 37.94937 121.06094 31060 ft 519 kts 28°
2026-04-17 08:25 38.00973 121.11228 31076 ft 518 kts 28°
2026-04-17 08:25 38.06976 121.16344 31088 ft 518 kts 28°
2026-04-17 08:26 38.12944 121.21445 31070 ft 517 kts 28°
2026-04-17 08:26 38.18909 121.26553 31073 ft 517 kts 28°
2026-04-17 08:27 38.24853 121.31656 31065 ft 517 kts 28°
2026-04-17 08:27 38.30839 121.36800 31092 ft 517 kts 28°
2026-04-17 08:28 38.36687 121.42209 31089 ft 520 kts 35°
2026-04-17 08:28 38.41815 121.48973 31071 ft 528 kts 47°
2026-04-17 08:29 38.45858 121.56924 31075 ft 535 kts 58°
2026-04-17 08:29 38.49280 121.65507 31077 ft 536 kts 60°
2026-04-17 08:30 38.52620 121.74031 31089 ft 537 kts 60°
2026-04-17 08:30 38.56027 121.82649 31092 ft 536 kts 60°
2026-04-17 08:31 38.59407 121.91182 31086 ft 535 kts 60°
2026-04-17 08:31 38.62797 121.99754 31081 ft 537 kts 60°
2026-04-17 08:32 38.66266 122.08189 31088 ft 531 kts 55°
2026-04-17 08:32 38.70761 122.15630 31089 ft 524 kts 42°
2026-04-17 08:33 38.76294 122.21629 31102 ft 517 kts 30°
2026-04-17 08:33 38.82371 122.26479 31093 ft 514 kts 26°
2026-04-17 08:34 38.88458 122.31197 31097 ft 515 kts 26°
2026-04-17 08:34 38.94563 122.36008 31096 ft 515 kts 27°
2026-04-17 08:35 39.00683 122.40864 31096 ft 515 kts 27°
2026-04-17 08:35 39.06824 122.45755 31090 ft 514 kts 27°
2026-04-17 08:36 39.12897 122.50603 31090 ft 514 kts 27°
2026-04-17 08:36 39.18987 122.55473 31071 ft 514 kts 27°
2026-04-17 08:37 39.25054 122.60333 31074 ft 513 kts 27°
2026-04-17 08:37 39.31316 122.64964 31077 ft 511 kts 24°
2026-04-17 08:38 39.37584 122.69406 31067 ft 511 kts 25°
2026-04-17 08:38 39.43879 122.73882 31074 ft 511 kts 25°
2026-04-17 08:39 39.50144 122.78361 31058 ft 510 kts 25°
2026-04-17 08:39 39.56441 122.82873 31070 ft 509 kts 25°
2026-04-17 08:40 39.62699 122.87371 31069 ft 510 kts 25°
2026-04-17 08:40 39.68972 122.91888 31143 ft 510 kts 25°
2026-04-17 08:41 39.75196 122.96378 31238 ft 510 kts 25°
2026-04-17 08:41 39.81414 123.00875 31336 ft 510 kts 25°
2026-04-17 08:42 39.87552 123.05330 31094 ft 492 kts 25°
2026-04-17 08:42 39.90487 123.07465 30898 ft 479 kts 25°
2026-04-17 08:42 39.93363 123.09560 30639 ft 470 kts 25°
2026-04-17 08:42 39.96236 123.11650 30327 ft 461 kts 25°
2026-04-17 08:43 39.99017 123.13676 30016 ft 453 kts 25°
2026-04-17 08:43 40.01777 123.15688 29695 ft 445 kts 25°
2026-04-17 08:43 40.04470 123.17651 29378 ft 438 kts 25°
2026-04-17 08:43 40.07132 123.19576 29060 ft 438 kts 24°
2026-04-17 08:44 40.09819 123.21500 28738 ft 439 kts 24°
2026-04-17 08:44 40.12477 123.23408 28423 ft 437 kts 24°
2026-04-17 08:44 40.15146 123.25328 28105 ft 434 kts 24°
2026-04-17 08:44 40.17770 123.27221 27787 ft 432 kts 24°
2026-04-17 08:45 40.20389 123.29112 27469 ft 429 kts 24°
2026-04-17 08:45 40.22980 123.30983 27157 ft 427 kts 24°
2026-04-17 08:45 40.25588 123.32870 26840 ft 424 kts 24°
2026-04-17 08:45 40.28181 123.34746 26523 ft 422 kts 24°
2026-04-17 08:46 40.30725 123.36591 26209 ft 420 kts 24°
2026-04-17 08:46 40.33276 123.38441 25898 ft 417 kts 24°
2026-04-17 08:46 40.35803 123.40277 25581 ft 415 kts 24°
2026-04-17 08:46 40.38336 123.42115 25262 ft 412 kts 24°
2026-04-17 08:47 40.40849 123.43945 24945 ft 409 kts 24°
2026-04-17 08:47 40.43337 123.45758 24629 ft 408 kts 24°
2026-04-17 08:47 40.45794 123.47550 24312 ft 405 kts 24°
2026-04-17 08:47 40.48277 123.49361 23993 ft 402 kts 24°
2026-04-17 08:48 40.50689 123.51121 23680 ft 400 kts 24°
2026-04-17 08:48 40.53142 123.52912 23363 ft 398 kts 24°
2026-04-17 08:48 40.55530 123.54665 23067 ft 396 kts 24°
2026-04-17 08:48 40.57878 123.56557 22793 ft 397 kts 27°
2026-04-17 08:49 40.60145 123.58627 22455 ft 397 kts 31°
2026-04-17 08:49 40.62347 123.60845 22118 ft 394 kts 32°
2026-04-17 08:49 40.64496 123.63065 21780 ft 391 kts 32°
2026-04-17 08:49 40.66637 123.65286 21440 ft 390 kts 33°
2026-04-17 08:50 40.68759 123.67487 21096 ft 387 kts 33°
2026-04-17 08:50 40.70882 123.69688 20765 ft 385 kts 32°
2026-04-17 08:50 40.72974 123.71857 20473 ft 382 kts 32°
2026-04-17 08:50 40.75065 123.74026 20197 ft 380 kts 33°
2026-04-17 08:51 40.77136 123.76176 19907 ft 379 kts 32°
2026-04-17 08:51 40.79184 123.78303 19614 ft 377 kts 32°
2026-04-17 08:51 40.81245 123.80444 19330 ft 375 kts 32°
2026-04-17 08:51 40.83308 123.82592 19029 ft 373 kts 32°
2026-04-17 08:52 40.85359 123.84729 18726 ft 371 kts 32°
2026-04-17 08:52 40.87410 123.86858 18462 ft 388 kts 32°
2026-04-17 08:52 40.89687 123.89134 18170 ft 412 kts 30°
2026-04-17 08:52 40.92088 123.91245 17887 ft 414 kts 26°
2026-04-17 08:53 40.94547 123.93123 17616 ft 412 kts 23°
2026-04-17 08:53 40.97054 123.94942 17373 ft 411 kts 22°
2026-04-17 08:53 40.99565 123.96742 17163 ft 409 kts 22°
2026-04-17 08:53 41.02072 123.98536 16971 ft 408 kts 22°
2026-04-17 08:54 41.04579 124.00334 16785 ft 407 kts 22°
2026-04-17 08:54 41.07060 124.02118 16609 ft 407 kts 23°
2026-04-17 08:54 41.09567 124.03924 16465 ft 405 kts 22°
2026-04-17 08:54 41.12036 124.05705 16334 ft 404 kts 23°
2026-04-17 08:55 41.14537 124.07509 16217 ft 404 kts 22°
2026-04-17 08:55 41.17017 124.09301 16106 ft 404 kts 23°
2026-04-17 08:55 41.19471 124.11077 16014 ft 403 kts 23°
2026-04-17 08:55 41.21983 124.12900 15937 ft 403 kts 23°
2026-04-17 08:56 41.24410 124.14663 15862 ft 402 kts 23°
2026-04-17 08:56 41.26910 124.16476 15772 ft 400 kts 23°
2026-04-17 08:56 41.29321 124.18230 15422 ft 393 kts 23°
2026-04-17 08:56 41.31691 124.19951 15019 ft 386 kts 22°
2026-04-17 08:57 41.34028 124.21647 14615 ft 381 kts 22°
2026-04-17 08:57 41.36369 124.23344 14206 ft 375 kts 22°
2026-04-17 08:57 41.38639 124.24995 13802 ft 370 kts 22°
2026-04-17 08:57 41.40871 124.26620 13404 ft 366 kts 22°
2026-04-17 08:58 41.43113 124.28218 12997 ft 359 kts 19°
2026-04-17 08:58 41.45473 124.28967 12565 ft 340 kts 354°
2026-04-17 08:58 41.47681 124.28245 12163 ft 326 kts 330°
2026-04-17 08:58 41.49461 124.26438 11766 ft 318 kts 313°
2026-04-17 08:59 41.50970 124.24300 11373 ft 315 kts 313°
2026-04-17 08:59 41.52488 124.22240 10978 ft 312 kts 313°
2026-04-17 08:59 41.54037 124.20165 10574 ft 310 kts 313°
2026-04-17 08:59 41.55568 124.18121 10173 ft 308 kts 313°
2026-04-17 09:00 41.57088 124.16090 9768 ft 305 kts 313°
2026-04-17 09:00 41.58572 124.14105 9373 ft 304 kts 313°
2026-04-17 09:00 41.60096 124.12066 8962 ft 302 kts 313°
2026-04-17 09:00 41.61579 124.10079 8564 ft 301 kts 313°
2026-04-17 09:01 41.63051 124.08111 8163 ft 299 kts 313°
2026-04-17 09:01 41.64513 124.06152 7768 ft 298 kts 312°
2026-04-17 09:01 41.65981 124.04184 7366 ft 298 kts 312°
2026-04-17 09:01 41.67435 124.02230 6968 ft 297 kts 312°
2026-04-17 09:02 41.68885 124.00281 6565 ft 297 kts 311°
2026-04-17 09:02 41.70339 123.98326 6174 ft 297 kts 311°
2026-04-17 09:02 41.71789 123.96374 5776 ft 297 kts 311°
2026-04-17 09:02 41.73254 123.94401 5381 ft 297 kts 311°
2026-04-17 09:03 41.74705 123.92445 4983 ft 297 kts 310°
2026-04-17 09:03 41.76176 123.90459 4698 ft 293 kts 310°
2026-04-17 09:03 41.77587 123.88556 4526 ft 286 kts 310°
2026-04-17 09:03 41.79062 123.86728 4350 ft 281 kts 314°
2026-04-17 09:04 41.80525 123.85022 4176 ft 276 kts 315°
2026-04-17 09:04 41.81966 123.83321 4000 ft 268 kts 308°
2026-04-17 09:04 41.82849 123.81222 3875 ft 251 kts 279°
2026-04-17 09:04 41.82813 123.78947 3870 ft 234 kts 253°
2026-04-17 09:05 41.82294 123.76935 3865 ft 223 kts 245°
2026-04-17 09:05 41.81545 123.75168 3859 ft 212 kts 236°
2026-04-17 09:05 41.80673 123.73633 3856 ft 200 kts 233°
2026-04-17 09:05 41.79797 123.72213 3861 ft 188 kts 231°
2026-04-17 09:06 41.78944 123.70879 3882 ft 189 kts 231°
2026-04-17 09:06 41.78064 123.69533 3867 ft 185 kts 230°
2026-04-17 09:06 41.77248 123.68299 3729 ft 170 kts 230°
2026-04-17 09:06 41.76484 123.67149 3505 ft 160 kts 230°
2026-04-17 09:07 41.75760 123.66061 3287 ft 150 kts 230°
2026-04-17 09:07 41.75067 123.65020 3088 ft 142 kts 229°
2026-04-17 09:07 41.74430 123.64063 2909 ft 133 kts 229°
2026-04-17 09:07 41.73823 123.63152 2741 ft 130 kts 229°
2026-04-17 09:08 41.73213 123.62234 2585 ft 130 kts 229°
2026-04-17 09:08 41.72602 123.61314 2420 ft 130 kts 229°
2026-04-17 09:08 41.72001 123.60410 2260 ft 130 kts 229°
2026-04-17 09:08 41.71399 123.59505 2091 ft 129 kts 229°
2026-04-17 09:09 41.70799 123.58600 1922 ft 129 kts 229°
2026-04-17 09:09 41.70200 123.57698 1746 ft 129 kts 229°
2026-04-17 09:09 41.69598 123.56790 1570 ft 128 kts 229°
2026-04-17 09:09 41.68997 123.55886 1397 ft 128 kts 229°
2026-04-17 09:10 41.67817 123.54102 1055 ft 127 kts 230°
2026-04-17 09:10 41.67226 123.53210 881 ft 127 kts 230°
2026-04-17 09:10 41.66631 123.52316 694 ft 126 kts 231°
2026-04-17 09:11 41.66046 123.51424 500 ft 126 kts 231°
2026-04-17 09:11 41.65464 123.50558 371 ft 126 kts 230°
2026-04-17 09:11 41.64888 123.49696 235 ft 123 kts 232°
2026-04-17 09:11 41.64419 123.48974 215 ft 63 kts 230°
2026-04-17 09:12 41.64234 123.48692 215 ft 35 kts 230°
2026-04-17 09:12 41.64078 123.48457 215 ft 24 kts 231°
2026-04-17 09:12 41.63990 123.48418 215 ft 12 kts 134°
2026-04-17 09:12 41.63938 123.48478 215 ft 9 kts 146°
2026-04-17 09:13 41.63878 123.48533 215 ft 10 kts 143°
2026-04-17 09:13 41.63818 123.48600 215 ft 11 kts 139°
2026-04-17 09:13 41.63755 123.48674 215 ft 12 kts 139°
2026-04-17 09:13 41.63689 123.48751 215 ft 8 kts 137°
2026-04-17 09:14 41.63659 123.48789 215 ft 5 kts 136°
2026-04-17 09:14 41.63650 123.48801 215 ft 0 kts 137°